{"data":{"norad_id":64585,"epoch":"2026-05-25T03:45:34.189344Z","epoch_age_seconds":64671,"freshness":"FRESH","line1":"1 64585U 25135BK  26145.15664571  .00001343  00000+0  13845-3 0  9991","line2":"2 64585  97.7733 259.9981 0002994  87.9057 272.2504 14.91879559 50464","mean_motion":14.91879559,"eccentricity":0.0002994,"inclination_deg":97.7733,"raan_deg":259.9981,"arg_perigee_deg":87.9057,"mean_anomaly_deg":272.2504,"bstar":0.00013845,"rev_number":5046,"period_min":96.522537044829,"perigee_km":589.98830399488,"apogee_km":594.16206705157,"semimajor_km":6970.2121855232,"source":"CELESTRAK","updated_at":"2026-05-25T13:38:04.625758Z"}}